| time (UTC) | temp F | wind direction | speed MPH | gust MPH | rain 1hr in | rain 24hr in | rain mn in | humidity % | barometer mb |
| 20260507224949 | 71 | 82 | 2.0 | 2.0 | 0.00 | 0.00 | 0.00 | 49 | 1016.9 |
| 20260507224444 | 71 | 97 | 3.0 | 3.0 | 0.00 | 0.00 | 0.00 | 49 | 1016.7 |
| 20260507223941 | 71 | 90 | 2.0 | 2.0 | 0.00 | 0.00 | 0.00 | 48 | 1016.8 |
| 20260507223437 | 71 | 76 | 1.0 | 1.0 | 0.00 | 0.00 | 0.00 | 49 | 1016.7 |
| 20260507222935 | 71 | 66 | 3.0 | 3.0 | 0.00 | 0.00 | 0.00 | 51 | 1016.8 |
| 20260507222432 | 72 | 80 | 3.0 | 5.0 | 0.00 | 0.00 | 0.00 | 48 | 1016.8 |
| 20260507221928 | 72 | 60 | 2.0 | 2.0 | 0.00 | 0.00 | 0.00 | 51 | 1017.0 |
| 20260507221425 | 72 | 55 | 2.0 | 2.0 | 0.00 | 0.00 | 0.00 | 52 | 1016.9 |
| 20260507220920 | 72 | 70 | 3.0 | 3.0 | 0.00 | 0.00 | 0.00 | 50 | 1016.6 |
| 20260507220419 | 73 | 67 | 3.0 | 3.0 | 0.00 | 0.00 | 0.00 | 49 | 1016.8 |
| 20260507215915 | 73 | 92 | 2.0 | 2.0 | 0.00 | 0.00 | 0.00 | 51 | 1016.9 |
| 20260507215412 | 73 | 76 | 1.0 | 2.0 | 0.00 | 0.00 | 0.00 | 47 | 1016.9 |
| 20260507214909 | 73 | 94 | 1.0 | 1.0 | 0.00 | 0.00 | 0.00 | 44 | 1017.0 |
| 20260507214407 | 73 | 72 | 0.0 | 0.0 | 0.00 | 0.00 | 0.00 | 48 | 1016.9 |
| 20260507213902 | 73 | 37 | 1.0 | 1.0 | 0.00 | 0.00 | 0.00 | 47 | 1016.9 |
| 20260507213359 | 74 | 329 | 2.0 | 2.0 | 0.00 | 0.00 | 0.00 | 46 | 1016.9 |
| 20260507212856 | 73 | 29 | 1.0 | 2.0 | 0.00 | 0.00 | 0.00 | 49 | 1017.2 |
| 20260507212352 | 74 | 32 | 3.0 | 5.0 | 0.00 | 0.00 | 0.00 | 49 | 1017.2 |
| 20260507211848 | 74 | 37 | 3.0 | 5.0 | 0.00 | 0.00 | 0.00 | 49 | 1017.2 |
| 20260507211345 | 74 | 65 | 2.0 | 2.0 | 0.00 | 0.00 | 0.00 | 46 | 1017.1 |
| 20260507210842 | 73 | 321 | 4.0 | 5.0 | 0.00 | 0.00 | 0.00 | 47 | 1017.4 |
| 20260507210339 | 73 | 103 | 2.0 | 3.0 | 0.00 | 0.00 | 0.00 | 46 | 1017.0 |
| 20260507205835 | 73 | 114 | 4.0 | 5.0 | 0.00 | 0.00 | 0.00 | 49 | 1017.2 |
| 20260507205332 | 73 | 73 | 4.0 | 5.0 | 0.00 | 0.00 | 0.00 | 50 | 1017.1 |
| 20260507204828 | 73 | 63 | 2.0 | 3.0 | 0.00 | 0.00 | 0.00 | 49 | 1017.2 |
| 20260507204326 | 73 | 85 | 5.0 | 5.0 | 0.00 | 0.00 | 0.00 | 48 | 1017.5 |
| 20260507203824 | 73 | 90 | 1.0 | 2.0 | 0.00 | 0.00 | 0.00 | 50 | 1017.3 |
| 20260507203321 | 74 | 37 | 4.0 | 5.0 | 0.00 | 0.00 | 0.00 | 49 | 1017.7 |
| 20260507202817 | 74 | 47 | 3.0 | 3.0 | 0.00 | 0.00 | 0.00 | 49 | 1017.7 |
| 20260507202314 | 74 | 240 | 2.0 | 2.0 | 0.00 | 0.00 | 0.00 | 44 | 1017.5 |
| 20260507201809 | 74 | 41 | 3.0 | 5.0 | 0.00 | 0.00 | 0.00 | 49 | 1017.4 |
| 20260507201305 | 75 | 69 | 4.0 | 5.0 | 0.00 | 0.00 | 0.00 | 46 | 1017.6 |
| 20260507200802 | 74 | 133 | 0.0 | 0.0 | 0.00 | 0.00 | 0.00 | 45 | 1017.5 |
| 20260507200257 | 73 | 53 | 1.0 | 1.0 | 0.00 | 0.00 | 0.00 | 51 | 1017.6 |
| 20260507195754 | 73 | 62 | 3.0 | 5.0 | 0.00 | 0.00 | 0.00 | 47 | 1017.7 |
| 20260507195251 | 73 | 53 | 4.0 | 6.0 | 0.00 | 0.00 | 0.00 | 50 | 1017.9 |
| 20260507194749 | 74 | 62 | 4.0 | 6.0 | 0.00 | 0.00 | 0.00 | 49 | 1017.8 |
| 20260507194244 | 73 | 87 | 1.0 | 1.0 | 0.00 | 0.00 | 0.00 | 51 | 1018.1 |
| 20260507193741 | 73 | 43 | 3.0 | 3.0 | 0.00 | 0.00 | 0.00 | 51 | 1018.1 |
| 20260507193238 | 73 | 75 | 6.0 | 7.0 | 0.00 | 0.00 | 0.00 | 48 | 1018.0 |
| 20260507192734 | 73 | 13 | 4.0 | 6.0 | 0.00 | 0.00 | 0.00 | 53 | 1018.1 |
| 20260507192231 | 73 | 296 | 3.0 | 3.0 | 0.00 | 0.00 | 0.00 | 50 | 1018.3 |
| 20260507191727 | 73 | 258 | 3.0 | 3.0 | 0.00 | 0.00 | 0.00 | 50 | 1018.5 |
| 20260507191224 | 73 | 46 | 3.0 | 3.0 | 0.00 | 0.00 | 0.00 | 51 | 1018.3 |
| 20260507190721 | 73 | 351 | 6.0 | 7.0 | 0.00 | 0.00 | 0.00 | 52 | 1018.5 |
| 20260507190220 | 72 | 35 | 5.0 | 7.0 | 0.00 | 0.00 | 0.00 | 49 | 1018.3 |
| 20260507185718 | 72 | 19 | 3.0 | 5.0 | 0.00 | 0.00 | 0.00 | 52 | 1018.4 |
| 20260507185214 | 72 | 345 | 5.0 | 6.0 | 0.00 | 0.00 | 0.00 | 53 | 1018.3 |
| 20260507184712 | 72 | 39 | 5.0 | 8.0 | 0.00 | 0.00 | 0.00 | 56 | 1018.6 |
| 20260507184210 | 71 | 6 | 2.0 | 2.0 | 0.00 | 0.00 | 0.00 | 53 | 1018.8 |
| 20260507183706 | 71 | 42 | 3.0 | 6.0 | 0.00 | 0.00 | 0.00 | 54 | 1018.7 |
| 20260507183202 | 71 | 32 | 3.0 | 5.0 | 0.00 | 0.00 | 0.00 | 57 | 1019.1 |
| 20260507182700 | 71 | 59 | 1.0 | 2.0 | 0.00 | 0.00 | 0.00 | 57 | 1019.2 |
| 20260507182155 | 71 | 33 | 1.0 | 2.0 | 0.00 | 0.00 | 0.00 | 55 | 1019.2 |
| 20260507181652 | 71 | 17 | 5.0 | 7.0 | 0.00 | 0.00 | 0.00 | 52 | 1019.2 |
| 20260507181148 | 71 | 2 | 5.0 | 8.0 | 0.00 | 0.00 | 0.00 | 55 | 1019.3 |
| 20260507180639 | 70 | 36 | 4.0 | 7.0 | 0.00 | 0.00 | 0.00 | 57 | 1019.4 |
| 20260507180136 | 69 | 63 | 1.0 | 1.0 | 0.00 | 0.00 | 0.00 | 55 | 1019.3 |
| 20260507175632 | 70 | 333 | 4.0 | 5.0 | 0.00 | 0.00 | 0.00 | 58 | 1019.5 |
| 20260507175129 | 70 | 62 | 5.0 | 6.0 | 0.00 | 0.00 | 0.00 | 59 | 1019.5 |
| 20260507174626 | 69 | 49 | 3.0 | 5.0 | 0.00 | 0.00 | 0.00 | 62 | 1019.6 |
| 20260507174124 | 68 | 44 | 3.0 | 3.0 | 0.00 | 0.00 | 0.00 | 57 | 1019.9 |
| 20260507173621 | 69 | 0 | 5.0 | 5.0 | 0.00 | 0.00 | 0.00 | 59 | 1020.1 |
| 20260507173118 | 69 | 296 | 4.0 | 5.0 | 0.00 | 0.00 | 0.00 | 57 | 1020.1 |
| 20260507172613 | 69 | 41 | 3.0 | 3.0 | 0.00 | 0.00 | 0.00 | 58 | 1020.1 |
| 20260507172111 | 69 | 297 | 3.0 | 3.0 | 0.00 | 0.00 | 0.00 | 55 | 1020.3 |
| 20260507171606 | 69 | 62 | 2.0 | 2.0 | 0.00 | 0.00 | 0.00 | 57 | 1020.6 |
| 20260507171103 | 68 | 48 | 3.0 | 3.0 | 0.00 | 0.00 | 0.00 | 56 | 1020.5 |
| 20260507170600 | 68 | 52 | 3.0 | 5.0 | 0.00 | 0.00 | 0.00 | 60 | 1020.7 |
| 20260507170057 | 68 | 43 | 2.0 | 5.0 | 0.00 | 0.00 | 0.00 | 61 | 1020.9 |
| 20260507165552 | 68 | 232 | 2.0 | 2.0 | 0.00 | 0.00 | 0.00 | 59 | 1020.8 |
| 20260507165049 | 67 | 91 | 0.0 | 1.0 | 0.00 | 0.00 | 0.00 | 61 | 1020.7 |
| 20260507164546 | 67 | 55 | 2.0 | 2.0 | 0.00 | 0.00 | 0.00 | 61 | 1020.7 |
| 20260507164043 | 67 | 102 | 3.0 | 5.0 | 0.00 | 0.00 | 0.00 | 60 | 1020.7 |
| 20260507163540 | 66 | 98 | 2.0 | 2.0 | 0.00 | 0.00 | 0.00 | 59 | 1020.8 |
| 20260507163038 | 66 | 94 | 4.0 | 5.0 | 0.00 | 0.00 | 0.00 | 60 | 1021.1 |
| 20260507162533 | 66 | 59 | 6.0 | 7.0 | 0.00 | 0.00 | 0.00 | 59 | 1020.9 |
| 20260507162030 | 67 | 22 | 3.0 | 5.0 | 0.00 | 0.00 | 0.00 | 59 | 1020.8 |
| 20260507161526 | 67 | 146 | 1.0 | 1.0 | 0.00 | 0.00 | 0.00 | 60 | 1020.7 |
| 20260507161023 | 67 | 40 | 1.0 | 2.0 | 0.00 | 0.00 | 0.00 | 58 | 1021.2 |
| 20260507160519 | 67 | 351 | 5.0 | 6.0 | 0.00 | 0.00 | 0.00 | 61 | 1020.9 |
| 20260507160016 | 66 | 58 | 3.0 | 3.0 | 0.00 | 0.00 | 0.00 | 60 | 1021.1 |
| 20260507155511 | 66 | 19 | 2.0 | 3.0 | 0.00 | 0.00 | 0.00 | 60 | 1021.0 |
| 20260507155009 | 66 | 36 | 3.0 | 3.0 | 0.00 | 0.00 | 0.00 | 61 | 1021.0 |
| 20260507154505 | 65 | 83 | 2.0 | 2.0 | 0.00 | 0.00 | 0.00 | 64 | 1021.1 |
| 20260507154002 | 65 | 20 | 2.0 | 2.0 | 0.00 | 0.00 | 0.00 | 65 | 1021.1 |
| 20260507153459 | 65 | 34 | 5.0 | 6.0 | 0.00 | 0.00 | 0.00 | 63 | 1021.0 |
| 20260507152955 | 64 | 67 | 1.0 | 1.0 | 0.00 | 0.00 | 0.00 | 64 | 1021.1 |
| 20260507152451 | 64 | 23 | 2.0 | 2.0 | 0.00 | 0.00 | 0.00 | 66 | 1021.3 |
| 20260507151948 | 64 | 64 | 4.0 | 6.0 | 0.00 | 0.00 | 0.00 | 65 | 1021.3 |
| 20260507151444 | 63 | 70 | 0.0 | 0.0 | 0.00 | 0.00 | 0.00 | 65 | 1021.4 |
| 20260507150941 | 63 | 59 | 2.0 | 3.0 | 0.00 | 0.00 | 0.00 | 69 | 1021.3 |
| 20260507150438 | 63 | 54 | 2.0 | 2.0 | 0.00 | 0.00 | 0.00 | 71 | 1021.3 |
| 20260507145934 | 63 | 43 | 2.0 | 3.0 | 0.00 | 0.00 | 0.00 | 72 | 1021.6 |
| 20260507145430 | 62 | 75 | 1.0 | 1.0 | 0.00 | 0.00 | 0.00 | 72 | 1021.3 |
| 20260507144927 | 62 | 62 | 2.0 | 2.0 | 0.00 | 0.00 | 0.00 | 73 | 1021.6 |
| 20260507144424 | 62 | 58 | 3.0 | 3.0 | 0.00 | 0.00 | 0.00 | 75 | 1021.6 |
| 20260507143921 | 62 | 64 | 4.0 | 5.0 | 0.00 | 0.00 | 0.00 | 73 | 1021.7 |
| 20260507143418 | 62 | 57 | 1.0 | 2.0 | 0.00 | 0.00 | 0.00 | 76 | 1021.6 |
| 20260507142915 | 61 | 42 | 3.0 | 5.0 | 0.00 | 0.00 | 0.00 | 73 | 1021.5 |
| 20260507142410 | 61 | 54 | 2.0 | 2.0 | 0.00 | 0.00 | 0.00 | 76 | 1021.7 |
| 20260507141908 | 61 | 23 | 2.0 | 2.0 | 0.00 | 0.00 | 0.00 | 75 | 1022.0 |
| 20260507141404 | 60 | 22 | 2.0 | 2.0 | 0.00 | 0.00 | 0.00 | 76 | 1021.8 |
| 20260507140901 | 60 | 52 | 2.0 | 2.0 | 0.00 | 0.00 | 0.00 | 79 | 1022.1 |
| 20260507140357 | 59 | 56 | 2.0 | 2.0 | 0.00 | 0.00 | 0.00 | 81 | 1022.1 |
| 20260507135855 | 59 | 29 | 2.0 | 2.0 | 0.00 | 0.00 | 0.00 | 82 | 1022.1 |
| 20260507135352 | 59 | 29 | 3.0 | 5.0 | 0.00 | 0.00 | 0.00 | 84 | 1022.0 |
| 20260507134849 | 58 | 53 | 0.0 | 0.0 | 0.00 | 0.00 | 0.00 | 88 | 1022.0 |
| 20260507134345 | 57 | 37 | 2.0 | 2.0 | 0.00 | 0.00 | 0.00 | 88 | 1022.1 |
| 20260507133841 | 57 | 34 | 2.0 | 3.0 | 0.00 | 0.00 | 0.00 | 90 | 1022.0 |
| 20260507133337 | 57 | 15 | 3.0 | 5.0 | 0.00 | 0.00 | 0.00 | 91 | 1022.2 |
| 20260507132836 | 56 | 39 | 2.0 | 2.0 | 0.00 | 0.00 | 0.00 | 93 | 1022.0 |
| 20260507132332 | 56 | 29 | 3.0 | 3.0 | 0.00 | 0.00 | 0.00 | 94 | 1022.2 |
| 20260507131829 | 55 | 326 | 3.0 | 3.0 | 0.00 | 0.00 | 0.00 | 94 | 1021.7 |
| 20260507131326 | 55 | 23 | 3.0 | 3.0 | 0.00 | 0.00 | 0.00 | 95 | 1022.0 |
| 20260507130823 | 54 | 334 | 4.0 | 6.0 | 0.00 | 0.00 | 0.00 | 96 | 1022.1 |
| 20260507130320 | 54 | 331 | 2.0 | 2.0 | 0.00 | 0.00 | 0.00 | 96 | 1021.7 |
| 20260507125819 | 53 | 300 | 3.0 | 3.0 | 0.00 | 0.00 | 0.00 | 97 | 1021.5 |
| 20260507125316 | 53 | 317 | 2.0 | 2.0 | 0.00 | 0.00 | 0.00 | 97 | 1021.6 |
| 20260507124813 | 53 | 321 | 2.0 | 2.0 | 0.00 | 0.00 | 0.00 | 97 | 1021.6 |
| 20260507124309 | 52 | 326 | 3.0 | 3.0 | 0.00 | 0.00 | 0.00 | 97 | 1021.7 |
| 20260507123807 | 52 | 299 | 3.0 | 3.0 | 0.00 | 0.00 | 0.00 | 97 | 1021.6 |
| 20260507123259 | 52 | 305 | 3.0 | 3.0 | 0.00 | 0.00 | 0.00 | 97 | 1021.5 |
| 20260507122755 | 52 | 305 | 1.0 | 2.0 | 0.00 | 0.00 | 0.00 | 97 | 1021.4 |
| 20260507122250 | 51 | 302 | 2.0 | 2.0 | 0.00 | 0.00 | 0.00 | 97 | 1021.5 |
| 20260507121746 | 51 | 297 | 2.0 | 2.0 | 0.00 | 0.00 | 0.00 | 97 | 1021.4 |
| 20260507121242 | 51 | 298 | 2.0 | 2.0 | 0.00 | 0.00 | 0.00 | 97 | 1021.2 |
| 20260507120738 | 50 | 283 | 1.0 | 1.0 | 0.00 | 0.00 | 0.00 | 97 | 1021.3 |
| 20260507120236 | 50 | 276 | 1.0 | 1.0 | 0.00 | 0.00 | 0.00 | 97 | 1021.0 |
| 20260507115732 | 50 | 256 | 2.0 | 2.0 | 0.00 | 0.00 | 0.00 | 97 | 1021.0 |
| 20260507115228 | 50 | 296 | 2.0 | 2.0 | 0.00 | 0.00 | 0.00 | 97 | 1021.0 |
| 20260507114723 | 50 | 260 | 1.0 | 2.0 | 0.00 | 0.00 | 0.00 | 97 | 1021.3 |
| 20260507114221 | 49 | 298 | 2.0 | 2.0 | 0.00 | 0.00 | 0.00 | 97 | 1020.9 |
| 20260507113718 | 50 | 336 | 2.0 | 2.0 | 0.00 | 0.00 | 0.00 | 97 | 1020.7 |
| 20260507113215 | 50 | 10 | 2.0 | 2.0 | 0.00 | 0.00 | 0.00 | 97 | 1020.4 |
| 20260507112713 | 50 | 11 | 1.0 | 1.0 | 0.00 | 0.00 | 0.00 | 97 | 1020.1 |
| 20260507112210 | 50 | 14 | 1.0 | 1.0 | 0.00 | 0.00 | 0.00 | 97 | 1020.3 |
| 20260507111707 | 50 | 17 | 1.0 | 1.0 | 0.00 | 0.00 | 0.00 | 97 | 1020.1 |
| 20260507111204 | 50 | 17 | 1.0 | 1.0 | 0.00 | 0.00 | 0.00 | 97 | 1020.0 |
| 20260507110659 | 50 | 18 | 2.0 | 2.0 | 0.00 | 0.00 | 0.00 | 97 | 1020.1 |
| 20260507110156 | 50 | 18 | 1.0 | 1.0 | 0.00 | 0.00 | 0.00 | 97 | 1020.2 |
| 20260507105653 | 50 | 18 | 1.0 | 2.0 | 0.00 | 0.00 | 0.00 | 97 | 1019.8 |
| 20260507105149 | 50 | 19 | 1.0 | 1.0 | 0.00 | 0.00 | 0.00 | 97 | 1019.9 |
| 20260507104647 | 50 | 19 | 1.0 | 1.0 | 0.00 | 0.00 | 0.00 | 97 | 1019.8 |
| 20260507104142 | 50 | 19 | 1.0 | 1.0 | 0.00 | 0.00 | 0.00 | 97 | 1019.6 |
| 20260507103638 | 50 | 19 | 0.0 | 0.0 | 0.00 | 0.00 | 0.00 | 97 | 1019.5 |
| 20260507103135 | 50 | 19 | 0.0 | 0.0 | 0.00 | 0.00 | 0.00 | 97 | 1019.6 |
| 20260507102632 | 50 | 19 | 1.0 | 1.0 | 0.00 | 0.00 | 0.00 | 97 | 1019.8 |
| 20260507102123 | 50 | 19 | 0.0 | 0.0 | 0.00 | 0.00 | 0.00 | 97 | 1019.4 |
| 20260507101619 | 50 | 19 | 1.0 | 1.0 | 0.00 | 0.00 | 0.00 | 97 | 1019.5 |
| 20260507101114 | 50 | 19 | 0.0 | 0.0 | 0.00 | 0.00 | 0.00 | 97 | 1019.4 |
| 20260507100612 | 50 | 19 | 1.0 | 1.0 | 0.00 | 0.00 | 0.00 | 97 | 1019.2 |
| 20260507100110 | 50 | 19 | 2.0 | 2.0 | 0.00 | 0.00 | 0.00 | 97 | 1019.4 |
| 20260507095608 | 50 | 20 | 1.0 | 2.0 | 0.00 | 0.00 | 0.00 | 97 | 1019.3 |
| 20260507095104 | 50 | 22 | 1.0 | 1.0 | 0.00 | 0.00 | 0.00 | 97 | 1019.4 |
| 20260507094600 | 50 | 22 | 1.0 | 2.0 | 0.00 | 0.00 | 0.00 | 97 | 1019.6 |
| 20260507094057 | 50 | 22 | 0.0 | 1.0 | 0.00 | 0.00 | 0.00 | 97 | 1019.6 |
| 20260507093555 | 50 | 22 | 0.0 | 1.0 | 0.00 | 0.00 | 0.00 | 97 | 1019.4 |
| 20260507093054 | 50 | 23 | 1.0 | 1.0 | 0.00 | 0.00 | 0.00 | 97 | 1019.4 |
| 20260507092549 | 50 | 23 | 0.0 | 1.0 | 0.00 | 0.00 | 0.00 | 97 | 1019.4 |
| 20260507092040 | 50 | 23 | 0.0 | 0.0 | 0.00 | 0.00 | 0.00 | 97 | 1019.3 |
| 20260507091537 | 51 | 23 | 0.0 | 0.0 | 0.00 | 0.00 | 0.00 | 97 | 1019.3 |
| 20260507091033 | 51 | 23 | 0.0 | 0.0 | 0.00 | 0.00 | 0.00 | 97 | 1019.0 |
| 20260507090529 | 50 | 27 | 1.0 | 2.0 | 0.00 | 0.00 | 0.00 | 97 | 1019.1 |
| 20260507090026 | 50 | 29 | 1.0 | 1.0 | 0.00 | 0.00 | 0.00 | 97 | 1019.0 |
| 20260507085524 | 50 | 28 | 1.0 | 2.0 | 0.00 | 0.00 | 0.00 | 96 | 1019.1 |
| 20260507085020 | 50 | 30 | 2.0 | 2.0 | 0.00 | 0.00 | 0.00 | 96 | 1019.0 |
| 20260507084517 | 51 | 30 | 1.0 | 2.0 | 0.00 | 0.00 | 0.00 | 96 | 1018.8 |
| 20260507084014 | 51 | 30 | 0.0 | 0.0 | 0.00 | 0.00 | 0.00 | 96 | 1019.0 |
| 20260507083510 | 51 | 30 | 0.0 | 0.0 | 0.00 | 0.00 | 0.00 | 96 | 1019.0 |
| 20260507083007 | 51 | 30 | 1.0 | 1.0 | 0.00 | 0.00 | 0.00 | 96 | 1018.8 |
| 20260507082503 | 51 | 29 | 1.0 | 1.0 | 0.00 | 0.00 | 0.00 | 96 | 1018.9 |
| 20260507081959 | 51 | 18 | 0.0 | 0.0 | 0.00 | 0.00 | 0.00 | 96 | 1018.9 |
| 20260507081455 | 51 | 17 | 0.0 | 1.0 | 0.00 | 0.00 | 0.00 | 96 | 1019.2 |
| 20260507080953 | 51 | 15 | 1.0 | 1.0 | 0.00 | 0.00 | 0.00 | 96 | 1019.1 |
| 20260507080448 | 51 | 15 | 2.0 | 2.0 | 0.00 | 0.00 | 0.00 | 96 | 1019.2 |
| 20260507075944 | 51 | 15 | 2.0 | 2.0 | 0.00 | 0.00 | 0.00 | 96 | 1019.0 |
| 20260507075440 | 51 | 12 | 3.0 | 3.0 | 0.00 | 0.00 | 0.00 | 96 | 1019.0 |
| 20260507074931 | 52 | 14 | 2.0 | 3.0 | 0.00 | 0.00 | 0.00 | 96 | 1019.0 |
| 20260507074428 | 52 | 15 | 2.0 | 2.0 | 0.00 | 0.00 | 0.00 | 96 | 1019.1 |
| 20260507073926 | 52 | 17 | 3.0 | 3.0 | 0.00 | 0.00 | 0.00 | 96 | 1018.9 |
| 20260507073422 | 52 | 24 | 2.0 | 2.0 | 0.00 | 0.00 | 0.00 | 96 | 1019.0 |
| 20260507072919 | 52 | 53 | 2.0 | 2.0 | 0.00 | 0.00 | 0.00 | 95 | 1019.0 |
| 20260507072416 | 52 | 59 | 0.0 | 0.0 | 0.00 | 0.00 | 0.00 | 95 | 1018.9 |
| 20260507071914 | 52 | 59 | 0.0 | 0.0 | 0.00 | 0.00 | 0.00 | 95 | 1018.9 |
| 20260507071410 | 52 | 59 | 0.0 | 0.0 | 0.00 | 0.00 | 0.00 | 95 | 1018.8 |
| 20260507070906 | 52 | 59 | 1.0 | 1.0 | 0.00 | 0.00 | 0.00 | 95 | 1018.9 |
| 20260507070404 | 52 | 59 | 1.0 | 1.0 | 0.00 | 0.00 | 0.00 | 95 | 1018.9 |
| 20260507065901 | 53 | 59 | 1.0 | 1.0 | 0.00 | 0.00 | 0.00 | 95 | 1018.7 |
| 20260507065357 | 53 | 59 | 1.0 | 1.0 | 0.00 | 0.00 | 0.00 | 95 | 1018.7 |
| 20260507064854 | 53 | 65 | 1.0 | 1.0 | 0.00 | 0.00 | 0.00 | 94 | 1018.5 |
| 20260507064353 | 53 | 72 | 1.0 | 1.0 | 0.00 | 0.00 | 0.00 | 94 | 1018.4 |
| 20260507063851 | 53 | 73 | 1.0 | 1.0 | 0.00 | 0.00 | 0.00 | 94 | 1018.6 |
| 20260507063347 | 53 | 70 | 3.0 | 3.0 | 0.00 | 0.00 | 0.00 | 94 | 1018.5 |
| 20260507062844 | 53 | 68 | 2.0 | 2.0 | 0.00 | 0.00 | 0.00 | 94 | 1018.7 |
| 20260507062341 | 53 | 76 | 2.0 | 3.0 | 0.00 | 0.00 | 0.00 | 94 | 1018.7 |
| 20260507061839 | 54 | 71 | 3.0 | 3.0 | 0.00 | 0.00 | 0.00 | 93 | 1018.5 |
| 20260507061336 | 54 | 58 | 3.0 | 3.0 | 0.00 | 0.00 | 0.00 | 93 | 1018.7 |
| 20260507060835 | 54 | 60 | 3.0 | 3.0 | 0.00 | 0.00 | 0.00 | 93 | 1018.6 |
| 20260507060331 | 54 | 51 | 3.0 | 3.0 | 0.00 | 0.00 | 0.00 | 93 | 1018.6 |
| 20260507055828 | 54 | 61 | 3.0 | 3.0 | 0.00 | 0.00 | 0.00 | 93 | 1018.6 |
| 20260507055323 | 54 | 62 | 3.0 | 3.0 | 0.00 | 0.00 | 0.00 | 93 | 1018.6 |
| 20260507054820 | 54 | 68 | 3.0 | 3.0 | 0.00 | 0.00 | 0.00 | 92 | 1018.7 |
| 20260507054316 | 55 | 65 | 2.0 | 2.0 | 0.00 | 0.00 | 0.00 | 92 | 1018.7 |
| 20260507053814 | 55 | 70 | 3.0 | 3.0 | 0.00 | 0.00 | 0.00 | 92 | 1018.6 |
| 20260507053311 | 55 | 56 | 3.0 | 3.0 | 0.00 | 0.00 | 0.00 | 91 | 1018.8 |
| 20260507052810 | 55 | 60 | 4.0 | 5.0 | 0.00 | 0.00 | 0.00 | 91 | 1018.9 |
| 20260507052307 | 55 | 70 | 2.0 | 2.0 | 0.00 | 0.00 | 0.00 | 91 | 1018.8 |
| 20260507051804 | 55 | 79 | 4.0 | 6.0 | 0.00 | 0.00 | 0.00 | 90 | 1018.9 |
| 20260507051301 | 55 | 76 | 3.0 | 3.0 | 0.00 | 0.00 | 0.00 | 90 | 1018.9 |
| 20260507050758 | 56 | 48 | 5.0 | 7.0 | 0.00 | 0.00 | 0.00 | 90 | 1018.8 |
| 20260507050254 | 56 | 57 | 5.0 | 6.0 | 0.00 | 0.00 | 0.00 | 89 | 1018.8 |
| 20260507045751 | 56 | 61 | 5.0 | 5.0 | 0.00 | 0.25 | 0.25 | 89 | 1019.0 |
| 20260507045247 | 56 | 75 | 3.0 | 3.0 | 0.00 | 0.25 | 0.25 | 89 | 1019.2 |
| 20260507044745 | 56 | 49 | 4.0 | 5.0 | 0.00 | 0.25 | 0.25 | 88 | 1018.9 |
| 20260507044241 | 56 | 57 | 3.0 | 3.0 | 0.00 | 0.25 | 0.25 | 88 | 1019.0 |
| 20260507043737 | 56 | 54 | 2.0 | 2.0 | 0.00 | 0.25 | 0.25 | 88 | 1019.0 |
| 20260507043234 | 56 | 50 | 3.0 | 3.0 | 0.00 | 0.25 | 0.25 | 88 | 1019.2 |
| 20260507042731 | 56 | 50 | 1.0 | 2.0 | 0.00 | 0.25 | 0.25 | 87 | 1019.0 |
| 20260507042226 | 56 | 65 | 5.0 | 6.0 | 0.00 | 0.25 | 0.25 | 87 | 1019.5 |
| 20260507041724 | 56 | 56 | 3.0 | 3.0 | 0.00 | 0.25 | 0.25 | 87 | 1019.1 |
| 20260507041221 | 56 | 40 | 3.0 | 3.0 | 0.00 | 0.25 | 0.25 | 86 | 1019.2 |
| 20260507040718 | 56 | 45 | 3.0 | 3.0 | 0.00 | 0.25 | 0.25 | 86 | 1019.1 |
| 20260507040214 | 57 | 27 | 4.0 | 5.0 | 0.00 | 0.25 | 0.25 | 86 | 1019.2 |
| 20260507035710 | 57 | 56 | 2.0 | 3.0 | 0.00 | 0.25 | 0.25 | 86 | 1019.0 |
| 20260507035205 | 57 | 56 | 4.0 | 6.0 | 0.00 | 0.25 | 0.25 | 86 | 1019.2 |
| 20260507034702 | 57 | 53 | 1.0 | 2.0 | 0.00 | 0.25 | 0.25 | 86 | 1019.1 |
| 20260507034200 | 57 | 51 | 2.0 | 3.0 | 0.00 | 0.25 | 0.25 | 85 | 1019.0 |
| 20260507033658 | 57 | 40 | 6.0 | 8.0 | 0.00 | 0.25 | 0.25 | 86 | 1019.2 |
| 20260507033155 | 57 | 17 | 4.0 | 5.0 | 0.00 | 0.25 | 0.25 | 86 | 1019.1 |
| 20260507032653 | 57 | 32 | 4.0 | 5.0 | 0.00 | 0.25 | 0.25 | 86 | 1019.0 |
| 20260507032148 | 57 | 48 | 2.0 | 3.0 | 0.00 | 0.25 | 0.25 | 86 | 1019.1 |
| 20260507031645 | 57 | 42 | 5.0 | 6.0 | 0.00 | 0.25 | 0.25 | 86 | 1018.8 |
| 20260507031142 | 57 | 36 | 4.0 | 6.0 | 0.00 | 0.25 | 0.25 | 87 | 1018.6 |
| 20260507030639 | 57 | 33 | 5.0 | 6.0 | 0.00 | 0.25 | 0.25 | 87 | 1018.7 |
| 20260507030137 | 57 | 69 | 6.0 | 7.0 | 0.00 | 0.25 | 0.25 | 87 | 1018.5 |
| 20260507025633 | 57 | 52 | 3.0 | 6.0 | 0.00 | 0.25 | 0.25 | 87 | 1018.6 |
| 20260507025130 | 57 | 59 | 4.0 | 5.0 | 0.00 | 0.25 | 0.25 | 87 | 1018.6 |
| 20260507024628 | 57 | 46 | 4.0 | 6.0 | 0.00 | 0.25 | 0.25 | 87 | 1018.4 |
| 20260507024125 | 57 | 25 | 3.0 | 3.0 | 0.00 | 0.25 | 0.25 | 87 | 1018.1 |
| 20260507023621 | 57 | 46 | 2.0 | 2.0 | 0.00 | 0.25 | 0.25 | 87 | 1018.1 |
| 20260507023119 | 57 | 51 | 2.0 | 2.0 | 0.00 | 0.25 | 0.25 | 87 | 1018.0 |
| 20260507022615 | 57 | 68 | 2.0 | 2.0 | 0.00 | 0.25 | 0.25 | 87 | 1018.0 |
| 20260507022110 | 57 | 51 | 3.0 | 5.0 | 0.00 | 0.25 | 0.25 | 87 | 1017.8 |
| 20260507021607 | 57 | 48 | 3.0 | 5.0 | 0.00 | 0.25 | 0.25 | 88 | 1017.7 |
| 20260507021103 | 57 | 60 | 4.0 | 5.0 | 0.00 | 0.25 | 0.25 | 89 | 1017.7 |
| 20260507020601 | 57 | 46 | 2.0 | 3.0 | 0.00 | 0.25 | 0.25 | 89 | 1017.7 |
| 20260507020056 | 57 | 66 | 3.0 | 5.0 | 0.00 | 0.25 | 0.25 | 89 | 1017.6 |
| 20260507015555 | 57 | 55 | 1.0 | 2.0 | 0.00 | 0.25 | 0.25 | 90 | 1017.3 |
| 20260507015047 | 57 | 42 | 3.0 | 3.0 | 0.00 | 0.25 | 0.25 | 90 | 1017.5 |
| 20260507014543 | 57 | 58 | 2.0 | 3.0 | 0.00 | 0.25 | 0.25 | 90 | 1017.1 |
| 20260507014033 | 57 | 70 | 1.0 | 1.0 | 0.00 | 0.25 | 0.25 | 90 | 1016.8 |
| 20260507013530 | 57 | 34 | 2.0 | 2.0 | 0.00 | 0.25 | 0.25 | 90 | 1017.0 |
| 20260507013027 | 57 | 40 | 3.0 | 6.0 | 0.00 | 0.25 | 0.25 | 90 | 1016.8 |
| 20260507012525 | 57 | 59 | 2.0 | 3.0 | 0.00 | 0.25 | 0.25 | 89 | 1016.6 |
| 20260507012021 | 57 | 51 | 4.0 | 5.0 | 0.00 | 0.25 | 0.25 | 89 | 1016.9 |
| 20260507011519 | 57 | 57 | 2.0 | 3.0 | 0.00 | 0.25 | 0.25 | 89 | 1016.7 |
| 20260507011014 | 57 | 46 | 6.0 | 8.0 | 0.00 | 0.25 | 0.25 | 89 | 1016.8 |
| 20260507010509 | 57 | 56 | 4.0 | 5.0 | 0.00 | 0.25 | 0.25 | 89 | 1016.6 |
| 20260507010006 | 57 | 41 | 2.0 | 2.0 | 0.00 | 0.25 | 0.25 | 89 | 1016.6 |
| 20260507005503 | 57 | 4 | 3.0 | 5.0 | 0.00 | 0.25 | 0.25 | 89 | 1016.3 |
| 20260507004959 | 57 | 38 | 5.0 | 7.0 | 0.00 | 0.25 | 0.25 | 89 | 1016.3 |
| 20260507004455 | 57 | 51 | 3.0 | 3.0 | 0.00 | 0.25 | 0.25 | 89 | 1016.2 |
| 20260507003948 | 57 | 38 | 4.0 | 6.0 | 0.00 | 0.25 | 0.25 | 89 | 1016.2 |
| 20260507003443 | 57 | 40 | 4.0 | 6.0 | 0.00 | 0.25 | 0.25 | 89 | 1016.3 |
| 20260507002938 | 57 | 41 | 3.0 | 3.0 | 0.00 | 0.25 | 0.25 | 89 | 1016.1 |
| 20260507002435 | 57 | 49 | 3.0 | 3.0 | 0.00 | 0.25 | 0.25 | 88 | 1016.1 |
| 20260507001931 | 57 | 21 | 6.0 | 7.0 | 0.00 | 0.25 | 0.25 | 89 | 1016.0 |
| 20260507001428 | 57 | 31 | 7.0 | 9.0 | 0.00 | 0.25 | 0.25 | 89 | 1016.0 |
| 20260507000925 | 57 | 46 | 2.0 | 2.0 | 0.00 | 0.25 | 0.25 | 89 | 1016.0 |
| 20260507000420 | 57 | 64 | 3.0 | 3.0 | 0.00 | 0.25 | 0.25 | 89 | 1016.0 |
| 20260506235916 | 57 | 40 | 4.0 | 5.0 | 0.00 | 0.25 | 0.25 | 89 | 1015.9 |
| 20260506235414 | 57 | 45 | 3.0 | 5.0 | 0.00 | 0.25 | 0.25 | 89 | 1015.8 |
| 20260506234909 | 57 | 64 | 2.0 | 3.0 | 0.00 | 0.25 | 0.25 | 89 | 1016.1 |
| 20260506234408 | 57 | 51 | 5.0 | 7.0 | 0.00 | 0.25 | 0.25 | 89 | 1015.7 |
| 20260506233905 | 57 | 65 | 6.0 | 8.0 | 0.00 | 0.25 | 0.25 | 89 | 1015.7 |
| 20260506233400 | 57 | 55 | 3.0 | 3.0 | 0.00 | 0.25 | 0.25 | 89 | 1015.6 |
| 20260506232858 | 57 | 27 | 6.0 | 8.0 | 0.00 | 0.25 | 0.25 | 89 | 1015.5 |
| 20260506232354 | 57 | 39 | 6.0 | 8.0 | 0.00 | 0.25 | 0.25 | 90 | 1015.3 |
| 20260506231850 | 57 | 44 | 3.0 | 6.0 | 0.00 | 0.25 | 0.25 | 90 | 1015.4 |
| 20260506231348 | 57 | 29 | 3.0 | 3.0 | 0.00 | 0.25 | 0.25 | 90 | 1015.6 |
| 20260506230845 | 57 | 7 | 5.0 | 7.0 | 0.00 | 0.25 | 0.25 | 89 | 1015.8 |
| 20260506230342 | 57 | 57 | 5.0 | 8.0 | 0.00 | 0.25 | 0.25 | 89 | 1015.5 |
| 20260506225837 | 57 | 64 | 8.0 | 10.0 | 0.00 | 0.25 | 0.25 | 89 | 1015.6 |